STARLINK-4609, 53619

Orbit data source: Space-Track

STARLINK-4609, 53619 is a payload satellite owned by SpaceX/Seattle (US) in LEO that was launched on Sun, 28 Aug 2022 UTC via an FALCON 9 launch vehicle from the Air Force Eastern Test Range (AFETR). Payload-class satellites include a variety of spacecraft equipped with specific instruments for various scientific and technological missions. These include communications satellites like Starlink; space stations such as the ISS; scientific satellites like the Hubble; Earth observation satellites from companies like Planet Labs, Umbra, and HawkEye 360; GPS; miniature CubeSats for education and research; and military/defense satellites.

Loading next visibility...
Identifier
53619, 2022-104AH
Orbit
LEO
Country
Flag of USUS
Related business
Manufacturer
SpaceX/Seattle
Mission
Operational Commercial Communications
Bus & Motor
STARLINK, Unknown motor
Mass
300 kg wet, ~290 kg dry
Launch date (UTC)
2022-08-28 (3 years ago)
Launch vehicle
FALCON 9
Launch site
Air Force Eastern Test Range (AFETR)
Object type
Payload
Rocket body
Debris
Shape & HBR
Box + 1 Pan, 10.1 m
Radar Cross Section
13.562 m², Large (>1 m²)

Expand to show TLE details & history
Last TLE update: 1 day ago

TLE from 1 day ago
0 STARLINK-4609
1 53619U 22104AH  25301.20004956  .00004571  00000-0  30504-3 0  9992
2 53619  53.2152 108.8833 0001382  95.7834 264.3316 15.08849366175632
Epoch: 2025-10-28T04:48Z
TLE epoch observation values (Epoch: 2025-10-28T04:48:04.281Z)
Latitude
-0.00003°
Longitude
0.07449°
Altitude
540.707 km
Speed
7.593 km/s
True Right ascension
07h 15m 31s
True Declination
0° 00' 00"
Sunlit
Object was in daylight at epoch
Visualization orbit readout
Latitude
Unknown
Longitude
Unknown
Altitude
Unknown
Speed
Unknown
Apparent Right ascension
Unknown
Apparent Declination
Unknown
Sunlit
N/A
Visualization observer readout
Local Sidereal Time
03:33:02
Azimuth
Unknown
Elevation
Unknown
Doppler factor
Unknown
Orbital elements
Apogee altitude
540.916 km
Perigee altitude
539.004 km
Semi-major axis
6,918.097 km
Eccentricity
0.00014
Inclination
53.2152°
RAAN
108.8833°
Arg. of periapsis
95.7834°
True anomaly
264.31584°
Mean anomaly
264.3316°
Eccentric anomaly
264.32372°
Mean motion
3.77193 °/min
Orbital period
95.44 mins
BSTAR
0.00030504
Loading maneuver chart data...
Computing Atmospheric mass density...
Loading historical data...
Loading historical data...
Loading historical data...
Loading historical data...
Loading historical data...
Loading historical data...
Loading historical data...

Documentation

Showing up to 5 results
|